This is the latest recevied weather packets stored in our database for station/object K4AMF. If no packets are shown the sender has not sent any weather packets the latest 10 day(s).
| Time | Temp. | Humidity | Pressure | Rain* | Wind** | Luminosity | Snow |
|---|---|---|---|---|---|---|---|
| 1777499037 | 32.78° C | 45% | 1007.1 hPa | 0 mm | - | 328 W/m² | - |
| 1777498732 | 33.33° C | 43% | 1007 hPa | 0 mm | - | 324 W/m² | - |
| 1777498429 | 33.33° C | 43% | 1006.6 hPa | 0 mm | - | 332 W/m² | - |
| 1777498126 | 32.78° C | 44% | 1007 hPa | 0 mm | - | 190 W/m² | - |
| 1777497824 | 32.78° C | 45% | 1007.1 hPa | 0 mm | - | 356 W/m² | - |
| 1777497520 | 32.78° C | 45% | 1007.2 hPa | 0 mm | - | 420 W/m² | - |
| 1777497216 | 32.78° C | 44% | 1007.2 hPa | 0 mm | - | 420 W/m² | - |
| 1777496913 | 32.78° C | 45% | 1007.4 hPa | 0 mm | - | 402 W/m² | - |
| 1777496610 | 33.33° C | 44% | 1007.1 hPa | 0 mm | - | 451 W/m² | - |
| 1777496306 | 32.78° C | 44% | 1007.2 hPa | 0 mm | - | 435 W/m² | - |
| 1777496001 | 32.78° C | 44% | 1007.5 hPa | 0 mm | - | 440 W/m² | - |
| 1777495698 | 32.78° C | 44% | 1007.5 hPa | 0 mm | - | 483 W/m² | - |
| 1777495395 | 32.78° C | 45% | 1007.4 hPa | 0 mm | - | 505 W/m² | - |
| 1777495091 | 32.78° C | 45% | 1007.5 hPa | 0 mm | - | 494 W/m² | - |
| 1777494789 | 32.78° C | 45% | 1007.8 hPa | 0 mm | - | 508 W/m² | - |
| 1777494485 | 32.22° C | 47% | 1007.8 hPa | 0 mm | - | 540 W/m² | - |
| 1777494182 | 32.22° C | 46% | 1008 hPa | 0 mm | - | 127 W/m² | - |
| 1777493879 | 33.33° C | 44% | 1008 hPa | 0 mm | - | 550 W/m² | - |
| 1777493577 | 33.33° C | 44% | 1008.1 hPa | 0 mm | - | 591 W/m² | - |
| 1777493275 | 33.33° C | 45% | 1008.3 hPa | 0 mm | - | 580 W/m² | - |
| 1777492971 | 32.78° C | 45% | 1008.3 hPa | 0 mm | - | 585 W/m² | - |
| 1777492668 | 32.78° C | 45% | 1008.6 hPa | 0 mm | - | 598 W/m² | - |
| 1777492368 | 32.78° C | 44% | 1008.7 hPa | 0 mm | - | 306 W/m² | - |
| 1777492065 | 32.78° C | 45% | 1009 hPa | 0 mm | - | 620 W/m² | - |
| 1777491762 | 32.22° C | 45% | 1009 hPa | 0 mm | - | 639 W/m² | - |
* Rain latest hour (hover to see other rain measurements)
** Current wind speed in m/s (hover to see current wind gust speed)